Location: Monteux
(44.0348°N, 4.9972°E)
Time: 17:43:43
(UTC+00:00)

NOSS 3-2 (A) - Pass Details

Date: 30 November 2020
Orbit: 791 x 1417 km, 63.4° (Epoch: 20 December)

Event Time Altitude Azimuth Distance (km) Brightness Sun altitude
Rises 19:17:44 0° 236° (WSW) 3,357 7.0 -34.3°
Reaches altitude 10° 19:20:09 10° 243° (WSW) 2,477 6.2 -34.7°
Enters shadow 19:24:50 44° 293° (WNW) 1,243 4.3 -35.6°
